Voltar ao catálogo

STARLINK-37732

AtivoComunicaçõesSSO
NORAD 69307·PAYLOAD·🇺🇸 United States

Lançado May 30, 2026 de Vandenberg Space Force Base

Loading…

Próximas Passagens (próximas 24 horas)

TLE

AtualizadoSource: CelesTrak SupGP

Época: Sep 15, 2026, 03:35 UTC

1 69307C 26119M   26258.14979167 -.00049774  00000+0 -15454-2 0  2582
2 69307  97.2835 282.9642 0001503  88.0713 272.5490 15.33458741    11

Acompanhe STARLINK-37732 em tempo real com AllMySat

Download on the App Store